H1 CPF 2 NER 2021 6 13 9 164 01 glonass139 H2 1808601 9139 43687 2021 6 13 0 0 0 2021 6 16 23 45 0 900 1 1 0 0 0 1 H9 10 0 59378 0.00000 0 13618476.201 -10625378.719 -18749995.800 10 0 59378 900.00000 0 15772848.017 -11040056.385 -16714096.142 10 0 59378 1800.00000 0 17627062.827 -11550658.949 -14353078.658 10 0 59378 2700.00000 0 19143706.878 -12107571.378 -11712927.150 10 0 59378 3600.00000 0 20297349.948 -12656356.444 -8845039.769 10 0 59378 4500.00000 0 21075400.026 -13140212.424 -5805221.626 10 0 59378 5400.00000 0 21478431.041 -13502542.952 -2652592.473 10 0 59378 6300.00000 0 21519971.281 -13689529.671 551568.723 10 0 59378 7200.00000 0 21225763.089 -13652598.315 3745019.038 10 0 59378 8100.00000 0 20632526.661 -13350673.619 6865762.928 10 0 59378 9000.00000 0 19786281.561 -12752127.545 9853255.683 10 0 59378 9900.00000 0 18740297.894 -11836338.551 12649575.358 10 0 59378 10800.00000 0 17552764.394 -10594796.173 15200540.594 10 0 59378 11700.00000 0 16284272.026 -9031704.414 17456753.081 10 0 59378 12600.00000 0 14995219.041 -7164058.520 19374545.118 10 0 59378 13500.00000 0 13743246.092 -5021191.620 20916814.919 10 0 59378 14400.00000 0 12580808.320 -2643809.602 22053734.641 10 0 59378 15300.00000 0 11552985.205 -82553.707 22763318.531 10 0 59378 16200.00000 0 10695618.738 2603850.452 23031841.311 10 0 59378 17100.00000 0 10033856.688 5350781.966 22854099.555 10 0 59378 18000.00000 0 9581160.929 8090162.398 22233511.503 10 0 59378 18900.00000 0 9338821.490 10753042.841 21182053.574 10 0 59378 19800.00000 0 9295996.227 13272234.698 19720034.488 10 0 59378 20700.00000 0 9430274.325 15584876.469 17875710.777 10 0 59378 21600.00000 0 9708740.204 17634831.390 15684750.145 10 0 59378 22500.00000 0 10089493.607 19374817.272 13189551.890 10 0 59378 23400.00000 0 10523562.561 20768180.482 10438436.399 10 0 59378 24300.00000 0 10957129.273 21790240.481 7484718.200 10 0 59378 25200.00000 0 11333975.596 22429148.736 4385679.571 10 0 59378 26100.00000 0 11598045.057 22686225.814 1201463.983 10 0 59378 27000.00000 0 11696013.083 22575762.203 -2006089.545 10 0 59378 27900.00000 0 11579756.208 22124290.798 -5174648.567 10 0 59378 28800.00000 0 11208614.944 21369361.312 -8242602.082 10 0 59378 29700.00000 0 10551353.286 20357867.990 -11150264.001 10 0 59378 30600.00000 0 9587730.421 19144001.021 -13841041.139 10 0 59378 31500.00000 0 8309616.505 17786908.116 -16262542.093 10 0 59378 32400.00000 0 6721603.504 16348165.110 -18367604.735 10 0 59378 33300.00000 0 4841083.507 14889162.552 -20115221.630 10 0 59378 34200.00000 0 2697789.476 13468518.861 -21471344.763 10 0 59378 35100.00000 0 332816.151 12139629.364 -22409553.564 10 0 59378 36000.00000 0 -2202839.212 10948454.668 -22911572.988 10 0 59378 36900.00000 0 -4850156.185 9931641.612 -22967631.434 10 0 59378 37800.00000 0 -7544312.849 9115055.742 -22576651.539 10 0 59378 38700.00000 0 -10217157.635 8512786.734 -21746270.179 10 0 59378 39600.00000 0 -12799828.445 8126668.107 -20492687.357 10 0 59378 40500.00000 0 -15225410.077 7946330.678 -18840347.057 10 0 59378 41400.00000 0 -17431519.295 7949786.555 -16821456.382 10 0 59378 42300.00000 0 -19362709.776 8104518.005 -14475352.593 10 0 59378 43200.00000 0 -20972596.889 8369024.057 -11847730.623 10 0 59378 44100.00000 0 -22225613.963 8694758.359 -8989746.492 10 0 59378 45000.00000 0 -23098327.269 9028375.181 -5957014.602 10 0 59378 45900.00000 0 -23580255.606 9314187.513 -2808519.035 10 0 59378 46800.00000 0 -23674161.377 9496732.269 394539.321 10 0 59378 47700.00000 0 -23395802.296 9523333.295 3589936.679 10 0 59378 48600.00000 0 -22773155.700 9346553.124 6715637.466 10 0 59378 49500.00000 0 -21845149.523 8926429.454 9710998.726 10 0 59378 50400.00000 0 -20659954.638 8232401.648 12517944.133 10 0 59378 51300.00000 0 -19272911.392 7244845.898 15082084.929 10 0 59378 52200.00000 0 -17744178.132 5956154.327 17353766.529 10 0 59378 53100.00000 0 -16136200.685 4371312.598 19289021.079 10 0 59378 54000.00000 0 -14511108.729 2507951.546 20850408.587 10 0 59378 54900.00000 0 -12928147.470 395870.190 22007731.437 10 0 59378 55800.00000 0 -11441251.155 -1923950.647 22738609.592 10 0 59378 56700.00000 0 -10096858.665 -4400804.042 23028906.462 10 0 59378 57600.00000 0 -8932061.082 -6976122.761 22872998.066 10 0 59378 58500.00000 0 -7973157.362 -9585679.060 22273880.817 10 0 59378 59400.00000 0 -7234677.258 -12162028.837 21243116.004 10 0 59378 60300.00000 0 -6718911.418 -14637100.397 19800611.826 10 0 59378 61200.00000 0 -6415967.753 -16944821.861 17974246.539 10 0 59378 62100.00000 0 -6304351.432 -19023679.489 15799339.104 10 0 59378 63000.00000 0 -6352044.218 -20819101.631 13317976.396 10 0 59378 63900.00000 0 -6518038.072 -22285569.672 10578208.827 10 0 59378 64800.00000 0 -6754258.864 -23388368.318 7633128.796 10 0 59378 65700.00000 0 -7007799.465 -24104902.060 4539848.789 10 0 59378 66600.00000 0 -7223368.198 -24425522.369 1358398.313 10 0 59378 67500.00000 0 -7345849.124 -24353830.438 -1849439.331 10 0 59378 68400.00000 0 -7322865.524 -23906442.130 -5021327.917 10 0 59378 69300.00000 0 -7107237.350 -23112224.361 -8095593.107 10 0 59378 70200.00000 0 -6659227.536 -22011034.566 -11012427.067 10 0 59378 71100.00000 0 -5948480.714 -20652015.896 -13715058.778 10 0 59378 72000.00000 0 -4955570.683 -19091519.790 -16150866.380 10 0 59378 72900.00000 0 -3673089.500 -17390743.401 -18272409.187 10 0 59378 73800.00000 0 -2106230.291 -15613181.478 -20038358.586 10 0 59378 74700.00000 0 -272837.545 -13822000.171 -21414309.108 10 0 59378 75600.00000 0 1797079.004 -12077443.480 -22373453.497 10 0 59378 76500.00000 0 4062347.949 -10434381.498 -22897108.435 10 0 59378 77400.00000 0 6472116.366 -8940103.572 -22975080.500 10 0 59378 78300.00000 0 8967745.571 -7632448.878 -22605865.264 10 0 59378 79200.00000 0 11485043.923 -6538352.551 -21796675.686 10 0 59378 80100.00000 0 13956743.755 -5672867.822 -20563299.298 10 0 59378 81000.00000 0 16315119.255 -5038704.365 -18929787.121 10 0 59378 81900.00000 0 18494636.113 -4626301.136 -16927980.450 10 0 59378 82800.00000 0 20434522.235 -4414429.379 -14596884.981 10 0 59378 83700.00000 0 22081152.200 -4371298.930 -11981904.756 10 0 59378 84600.00000 0 23390145.974 -4456119.678 -9133951.160 10 0 59378 85500.00000 0 24328094.312 -4621050.744 -6108444.941 10 0 59379 0.00000 0 24873839.297 -4813453.638 -2964231.274 10 0 59379 900.00000 0 25019256.876 -4978352.582 237570.760 10 0 59379 1800.00000 0 24769510.397 -5060997.541 3434760.170 10 0 59379 2700.00000 0 24142764.381 -5009419.464 6565265.074 10 0 59379 3600.00000 0 23169373.323 -4776870.378 9568347.859 10 0 59379 4500.00000 0 21890579.773 -4324043.938 12385781.152 10 0 59379 5400.00000 0 20356777.859 -3620982.903 14962971.805 10 0 59379 6300.00000 0 18625415.730 -2648592.931 17250011.559 10 0 59379 7200.00000 0 16758625.222 -1399698.976 19202634.607 10 0 59379 8100.00000 0 14820677.977 120400.212 20783064.525 10 0 59379 9000.00000 0 12875373.815 1893903.111 21960735.278 10 0 59379 9900.00000 0 10983469.690 3891003.651 22712873.469 10 0 59379 10800.00000 0 9200255.266 6070896.774 23024931.706 10 0 59379 11700.00000 0 7573374.821 8383250.565 22890865.542 10 0 59379 12600.00000 0 6140984.882 10770085.056 22313249.214 10 0 59379 13500.00000 0 4930322.960 13167981.192 21303228.141 10 0 59379 14400.00000 0 3956745.846 15510529.814 19880308.850 10 0 59379 15300.00000 0 3223276.713 17730920.430 18071989.823 10 0 59379 16200.00000 0 2720679.239 19764563.586 15913239.464 10 0 59379 17100.00000 0 2428055.333 21551638.835 13445830.132 10 0 59379 18000.00000 0 2313941.302 23039462.888 10717539.952 10 0 59379 18900.00000 0 2337856.509 24184579.480 7781236.680 10 0 59379 19800.00000 0 2452239.456 24954483.636 4693860.336 10 0 59379 20700.00000 0 2604689.839 25328907.673 1515323.694 10 0 59379 21600.00000 0 2740421.805 25300614.442 -1692648.488 10 0 59379 22500.00000 0 2804824.422 24875663.641 -4867719.012 10 0 59379 23400.00000 0 2746020.447 24073139.128 -7948152.918 10 0 59379 24300.00000 0 2517314.148 22924347.877 -10874023.176 10 0 59379 25200.00000 0 2079423.349 21471523.557 -13588383.267 10 0 59379 26100.00000 0 1402399.782 19766088.782 -16038382.969 10 0 59379 27000.00000 0 467154.896 17866548.839 -18176304.869 10 0 59379 27900.00000 0 -733475.104 15836105.292 -19960500.773 10 0 59379 28800.00000 0 -2194171.618 13740089.846 -21356209.118 10 0 59379 29700.00000 0 -3897108.624 11643326.310 -22336237.122 10 0 59379 30600.00000 0 -5812462.818 9607531.422 -22881494.109 10 0 59379 31500.00000 0 -7899438.803 7688863.659 -22981365.507 10 0 59379 32400.00000 0 -10107767.375 5935722.566 -22633920.199 10 0 59379 33300.00000 0 -12379614.971 4386890.505 -21845947.259 10 0 59379 34200.00000 0 -14651824.805 3070094.113 -20632821.405 10 0 59379 35100.00000 0 -16858396.267 2001044.890 -19018199.957 10 0 59379 36000.00000 0 -18933098.980 1182997.994 -17033557.289 10 0 59379 36900.00000 0 -20812112.085 606846.409 -14717566.098 10 0 59379 37800.00000 0 -22436578.273 251744.928 -12115337.815 10 0 59379 38700.00000 0 -23754965.615 86235.926 -9277537.287 10 0 59379 39600.00000 0 -24725138.250 69827.783 -6259389.538 10 0 59379 40500.00000 0 -25316049.430 154957.566 -3119598.512 10 0 59379 41400.00000 0 -25508986.357 289253.486 80800.541 10 0 59379 42300.00000 0 -25298315.255 418000.113 3279631.937 10 0 59379 43200.00000 0 -24691696.287 486700.936 6414789.976 10 0 59379 44100.00000 0 -23709760.328 443629.084 9425444.974 10 0 59379 45000.00000 0 -22385262.159 242257.830 12253221.141 10 0 59379 45900.00000 0 -20761746.583 -156532.038 14843323.580 10 0 59379 46800.00000 0 -18891784.058 -782561.216 17145592.943 10 0 59379 47700.00000 0 -16834850.180 -1654856.874 19115467.905 10 0 59379 48600.00000 0 -14654937.679 -2780616.476 20714837.814 10 0 59379 49500.00000 0 -12418000.274 -4154674.095 21912770.125 10 0 59379 50400.00000 0 -10189334.236 -5759491.830 22686099.662 10 0 59379 51300.00000 0 -8031005.633 -7565677.334 23019869.426 10 0 59379 52200.00000 0 -5999428.885 -9533006.781 22907615.335 10 0 59379 53100.00000 0 -4143196.005 -11611911.766 22351489.918 10 0 59379 54000.00000 0 -2501245.208 -13745369.696 21362222.829 10 0 59379 54900.00000 0 -1101443.731 -15871120.539 19958918.702 10 0 59379 55800.00000 0 40357.294 -17924119.186 18168695.683 10 0 59379 56700.00000 0 920757.436 -19839122.807 16026170.728 10 0 59379 57600.00000 0 1548713.558 -21553306.584 13572800.462 10 0 59379 58500.00000 0 1944922.634 -23008799.546 10856089.185 10 0 59379 59400.00000 0 2140706.852 -24155035.043 7928678.182 10 0 59379 60300.00000 0 2176447.903 -24950817.599 4847332.921 10 0 59379 61200.00000 0 2099636.325 -25366019.131 1671847.109 10 0 59379 62100.00000 0 1962618.270 -25382832.672 -1536115.553 10 0 59379 63000.00000 0 1820135.131 -24996529.992 -4714219.589 10 0 59379 63900.00000 0 1726760.498 -24215690.118 -7800672.246 10 0 59379 64800.00000 0 1734343.705 -23061888.052 -10735430.242 10 0 59379 65700.00000 0 1889569.171 -21568855.706 -13461374.574 10 0 59379 66600.00000 0 2231736.109 -19781149.507 -15925429.657 10 0 59379 67500.00000 0 2790854.000 -17752380.013 -18079604.288 10 0 59379 68400.00000 0 3586135.895 -15543077.485 -19881933.439 10 0 59379 69300.00000 0 4624954.776 -13218282.802 -21297301.924 10 0 59379 70200.00000 0 5902308.539 -10844964.693 -22298133.533 10 0 59379 71100.00000 0 7400817.621 -8489371.425 -22864931.931 10 0 59379 72000.00000 0 9091256.602 -6214427.900 -22986662.632 10 0 59379 72900.00000 0 10933598.507 -4077286.918 -22660968.623 10 0 59379 73800.00000 0 12878528.842 -2127136.703 -21894215.441 10 0 59379 74700.00000 0 14869366.322 -403355.992 -20701364.930 10 0 59379 75600.00000 0 16844310.155 1065906.994 -19105680.238 10 0 59379 76500.00000 0 18738919.772 2264673.264 -17138267.939 10 0 59379 77400.00000 0 20488722.970 3189551.428 -14837466.428 10 0 59379 78300.00000 0 22031842.987 3849619.815 -12248092.789 10 0 59379 79200.00000 0 23311534.138 4265779.084 -9420563.150 10 0 59379 80100.00000 0 24278519.444 4469604.471 -6409904.217 10 0 59379 81000.00000 0 24893032.149 4501747.939 -3274675.816 10 0 59379 81900.00000 0 25126475.531 4409959.541 -75826.007 10 0 59379 82800.00000 0 24962631.646 4246813.151 3124498.165 10 0 59379 83700.00000 0 24398368.801 4067234.108 6264160.623 10 0 59379 84600.00000 0 23443818.733 3925934.354 9282242.971 10 0 59379 85500.00000 0 22122016.845 3874864.192 12120224.205 10 0 59380 0.00000 0 20468021.374 3960788.661 14723110.584 10 0 59380 900.00000 0 18527548.736 4223091.338 17040494.428 10 0 59380 1800.00000 0 16355183.188 4691896.868 19027521.201 10 0 59380 2700.00000 0 14012234.774 5386593.107 20645748.020 10 0 59380 3600.00000 0 11564335.252 6314812.741 21863877.494 10 0 59380 4500.00000 0 9078871.191 7471918.526 22658353.953 10 0 59380 5400.00000 0 6622360.046 8841013.395 23013811.701 10 0 59380 6300.00000 0 4257876.863 10393475.745 22923367.502 10 0 59380 7200.00000 0 2042637.117 12089998.402 22388752.218 10 0 59380 8100.00000 0 25834.412 13882089.085 21420279.323 10 0 59380 9000.00000 0 -1753178.646 15713971.225 20036650.677 10 0 59380 9900.00000 0 -3266292.064 17524807.292 18264602.775 10 0 59380 10800.00000 0 -4497565.414 19251153.364 16138399.423 10 0 59380 11700.00000 0 -5443642.323 20829543.772 13699179.466 10 0 59380 12600.00000 0 -6113635.691 22199098.755 10994171.064 10 0 59380 13500.00000 0 -6528488.850 23304046.673 8075786.496 10 0 59380 14400.00000 0 -6719839.583 24096055.274 5000613.970 10 0 59380 15300.00000 0 -6728434.819 24536273.913 1828325.318 10 0 59380 16200.00000 0 -6602162.892 24597000.309 -1379479.714 10 0 59380 17100.00000 0 -6393786.570 24262900.708 -4560470.265 10 0 59380 18000.00000 0 -6158472.999 23531730.903 -7652798.640 10 0 59380 18900.00000 0 -5951225.603 22414526.420 -10596308.035 10 0 59380 19800.00000 0 -5824327.471 20935252.491 -13333709.508 10 0 59380 20700.00000 0 -5824905.424 19129927.367 -15811704.437 10 0 59380 21600.00000 0 -5992719.103 17045254.775 -17982029.876 10 0 59380 22500.00000 0 -6358269.904 14736822.130 -19802405.741 10 0 59380 23400.00000 0 -6941311.044 12266939.594 -21237364.732 10 0 59380 24300.00000 0 -7749823.039 9702210.172 -22258948.446 10 0 59380 25200.00000 0 -8779499.096 7110932.342 -22847255.826 10 0 59380 26100.00000 0 -10013763.193 4560443.789 -22990833.121 10 0 59380 27000.00000 0 -11424321.048 2114517.082 -22686897.725 10 0 59380 27900.00000 0 -12972221.563 -169084.188 -21941391.584 10 0 59380 28800.00000 0 -14609384.589 -2240787.069 -20768863.205 10 0 59380 29700.00000 0 -16280531.118 -4061038.272 -19192180.714 10 0 59380 30600.00000 0 -17925434.931 -5601705.040 -17242081.647 10 0 59380 31500.00000 0 -19481400.959 -6846990.407 -14956568.527 10 0 59380 32400.00000 0 -20885866.025 -7793826.064 -12380162.245 10 0 59380 33300.00000 0 -22079012.411 -8451728.077 -9563028.152 10 0 59380 34200.00000 0 -23006284.020 -8842123.417 -6559992.428 10 0 59380 35100.00000 0 -23620699.138 -8997177.646 -3429468.448 10 0 59380 36000.00000 0 -23884862.440 -8958175.155 -232314.667 10 0 59380 36900.00000 0 -23772591.647 -8773522.094 2969353.009 10 0 59380 37800.00000 0 -23270090.713 -8496457.964 6113370.697 10 0 59380 38700.00000 0 -22376620.621 -8182573.838 9138733.912 10 0 59380 39600.00000 0 -21104640.127 -7887242.989 11986779.082 10 0 59380 40500.00000 0 -19479411.094 -7663072.986 14602316.329 10 0 59380 41400.00000 0 -17538085.352 -7557487.019 16934691.957 10 0 59380 42300.00000 0 -15328311.631 -7610536.297 18938760.608 10 0 59380 43200.00000 0 -12906420.723 -7853035.375 20575749.248 10 0 59380 44100.00000 0 -10335264.186 -8305098.462 21813997.371 10 0 59380 45000.00000 0 -7681795.993 -8975137.876 22629560.191 10 0 59380 45900.00000 0 -5014496.562 -9859366.505 23006664.310 10 0 59380 46800.00000 0 -2400744.851 -10941825.319 22938007.972 10 0 59380 47700.00000 0 95753.913 -12194935.208 22424900.657 10 0 59380 48600.00000 0 2417379.773 -13580550.926 21477239.617 10 0 59380 49500.00000 0 4514750.438 -15051474.212 20113323.600 10 0 59380 50400.00000 0 6348526.525 -16553364.117 18359506.823 10 0 59380 51300.00000 0 7890795.915 -18026966.056 16249699.005 10 0 59380 52200.00000 0 9125980.582 -19410567.682 13824719.972 10 0 59380 53100.00000 0 10051228.704 -20642579.771 11131520.181 10 0 59380 54000.00000 0 10676276.138 -21664134.755 8222281.012 10 0 59380 54900.00000 0 11022783.315 -22421594.186 5153411.225 10 0 59380 55800.00000 0 11123175.427 -22868859.660 1984458.316 10 0 59380 56700.00000 0 11019034.808 -22969389.454 -1223044.598 10 0 59380 57600.00000 0 10759113.358 -22697835.017 -4406774.094 10 0 59380 58500.00000 0 10397049.134 -22041227.119 -7504830.461 10 0 59380 59400.00000 0 9988884.033 -20999660.200 -10456946.327 10 0 59380 60300.00000 0 9590488.154 -19586444.528 -13205665.755 10 0 59380 61200.00000 0 9255000.635 -17827718.251 -15697469.952 10 0 59380 62100.00000 0 9030396.212 -15761534.297 -17883826.960 10 0 59380 63000.00000 0 8957281.518 -13436459.243 -19722144.145 10 0 59380 63900.00000 0 9067015.415 -10909742.134 -21176604.301 10 0 59380 64800.00000 0 9380233.880 -8245129.244 -22218868.664 10 0 59380 65700.00000 0 9905842.754 -5510415.758 -22828632.879 10 0 59380 66600.00000 0 10640521.737 -2774836.484 -22994024.893 10 0 59380 67500.00000 0 11568761.273 -106404.309 -22711837.026 10 0 59380 68400.00000 0 12663431.347 2430692.807 -21987587.722 10 0 59380 69300.00000 0 13886858.573 4778527.905 -20835411.845 10 0 59380 70200.00000 0 15192366.382 6887603.082 -19277781.803 10 0 59380 71100.00000 0 16526213.482 8718659.756 -17345065.049 10 0 59380 72000.00000 0 17829848.763 10244056.414 -15074926.828 10 0 59380 72900.00000 0 19042387.390 11448657.563 -12511590.077 10 0 59380 73800.00000 0 20103203.431 12330198.210 -9704967.253 10 0 59380 74700.00000 0 20954529.362 12899110.321 -6709681.566 10 0 59380 75600.00000 0 21543952.550 13177820.548 -3583997.212 10 0 59380 76500.00000 0 21826703.260 13199550.784 -388680.091 10 0 59380 77400.00000 0 21767637.617 13006673.995 2814188.114 10 0 59380 78300.00000 0 21342832.039 12648696.494 5962418.821 10 0 59380 79200.00000 0 20540722.179 12179953.277 8994924.517 10 0 59380 80100.00000 0 19362738.769 11657114.855 11852901.970 10 0 59380 81000.00000 0 17823413.961 11136611.550 14480967.836 10 0 59380 81900.00000 0 15949953.957 10672084.214 16828224.971 10 0 59380 82800.00000 0 13781295.992 10311968.798 18849239.385 10 0 59380 83700.00000 0 11366688.978 10097316.106 20504909.834 10 0 59380 84600.00000 0 8763856.603 10059937.918 21763214.358 10 0 59380 85500.00000 0 6036818.743 10220956.763 22599820.392 10 0 59381 0.00000 0 3253460.733 10589819.631 22998547.833 10 0 59381 900.00000 0 482949.923 11163817.034 22951676.999 10 0 59381 1800.00000 0 -2206894.546 11928126.522 22460096.163 10 0 59381 2700.00000 0 -4752171.328 12856380.865 21533286.048 10 0 59381 3600.00000 0 -7095301.420 13911736.082 20189141.515 10 0 59381 4500.00000 0 -9187168.759 15048396.710 18453633.257 10 0 59381 5400.00000 0 -10988909.738 16213535.105 16360315.233 10 0 59381 6300.00000 0 -12473278.161 17349525.700 13949686.219 10 0 59381 7200.00000 0 -13625529.507 18396401.555 11268416.637 10 0 59381 8100.00000 0 -14443788.110 19294430.940 8368454.438 10 0 59381 9000.00000 0 -14938882.125 19986706.145 5306026.255 10 0 59381 9900.00000 0 -15133653.247 20421635.644 2140552.478 10 0 59381 10800.00000 0 -15061770.186 20555234.261 -1066503.209 10 0 59381 11700.00000 0 -14766095.866 20353113.964 -4252827.653 10 0 59381 12600.00000 0 -14296677.236 19792090.106 -7356471.916 10 0 59381 13500.00000 0 -13708442.850 18861333.892 -10317060.780 10 0 59381 14400.00000 0 -13058705.877 17563020.766 -13076973.894 10 0 59381 15300.00000 0 -12404578.740 15912445.715 -15582474.681 10 0 59381 16200.00000 0 -11800409.449 13937598.969 -17784764.305 10 0 59381 17100.00000 0 -11295348.850 11678218.400 -19640939.427 10 0 59381 18000.00000 0 -10931152.526 9184357.190 -21114834.468 10 0 59381 18900.00000 0 -10740311.071 6514525.766 -22177731.508 10 0 59381 19800.00000 0 -10744588.449 3733484.980 -22808923.754 10 0 59381 20700.00000 0 -10954030.776 909782.334 -22996121.371 10 0 59381 21600.00000 0 -11366487.827 -1886866.302 -22735691.760 10 0 59381 22500.00000 0 -11967667.718 -4588240.533 -22032729.634 10 0 59381 23400.00000 0 -12731722.609 -7130213.969 -20900955.606 10 0 59381 24300.00000 0 -13622340.634 -9455179.479 -19362445.389 10 0 59381 25200.00000 0 -14594297.843 -11514200.539 -17447195.018 10 0 59381 26100.00000 0 -15595404.312 -13268799.561 -15192530.824 10 0 59381 27000.00000 0 -16568761.891 -14692309.495 -12642375.912 10 0 59381 27900.00000 0 -17455237.795 -15770733.497 -9846387.804 10 0 59381 28800.00000 0 -18196049.069 -16503078.120 -6858984.563 10 0 59381 29700.00000 0 -18735348.311 -16901147.852 -3738278.961 10 0 59381 30600.00000 0 -19022701.074 -16988811.575 -544942.028 10 0 59381 31500.00000 0 -19015350.027 -16800773.679 2658981.125 10 0 59381 32400.00000 0 -18680170.209 -16380903.492 5811279.633 10 0 59381 33300.00000 0 -17995232.883 -15780195.066 8850785.402 10 0 59381 34200.00000 0 -16950912.230 -15054444.644 11718558.021 10 0 59381 35100.00000 0 -15550488.491 -14261744.683 14359023.128 10 0 59381 36000.00000 0 -13810222.318 -13459900.533 16721042.515 10 0 59381 36900.00000 0 -11758897.283 -12703878.631 18758895.772 10 0 59381 37800.00000 0 -9436849.508 -12043393.262 20433155.443 10 0 59381 38700.00000 0 -6894524.456 -11520732.717 21711439.826 10 0 59381 39600.00000 0 -4190620.357 -11168915.329 22569029.975 10 0 59381 40500.00000 0 -1389894.413 -11010251.945 22989340.134 10 0 59381 41400.00000 0 1439278.460 -11055374.319 22964233.415 10 0 59381 42300.00000 0 4227494.523 -11302769.705 22494177.254 10 0 59381 43200.00000 0 6906952.134 -11738840.902 21588235.953 10 0 59381 44100.00000 0 9414017.313 -12338489.452 20263900.271 10 0 59381 45000.00000 0 11691619.073 -13066198.064 18546756.877 10 0 59381 45900.00000 0 13691376.527 -13877567.675 16470003.166 10 0 59381 46800.00000 0 15375370.492 -14721245.632 14073815.721 10 0 59381 47700.00000 0 16717486.583 -15541164.984 11404583.436 10 0 59381 48600.00000 0 17704274.299 -16279001.605 8514018.953 10 0 59381 49500.00000 0 18335286.436 -16876746.334 5458164.522 10 0 59381 50400.00000 0 18622884.551 -17279283.958 2296310.825 10 0 59381 51300.00000 0 18591518.578 -17436870.112 -910150.775 10 0 59381 52200.00000 0 18276510.726 -17307400.864 -4098920.474 10 0 59381 53100.00000 0 17722394.778 -16858378.119 -7208003.278 10 0 59381 54000.00000 0 16980880.865 -16068486.412 -10176919.304 10 0 59381 54900.00000 0 16108531.832 -14928712.832 -12947886.881 10 0 59381 55800.00000 0 15164249.682 -13442961.047 -15466954.591 10 0 59381 56700.00000 0 14206678.845 -11628131.684 -17685059.444 10 0 59381 57600.00000 0 13291636.570 -9513663.930 -19558989.859 10 0 59381 58500.00000 0 12469679.673 -7140556.068 -21052233.997 10 0 59381 59400.00000 0 11783911.015 -4559904.712 -22135696.517 10 0 59381 60300.00000 0 11268118.828 -1831022.800 -22788269.492 10 0 59381 61200.00000 0 10945327.833 980785.645 -22997246.142 10 0 59381 62100.00000 0 10826823.452 3806701.655 -22758569.325 10 0 59381 63000.00000 0 10911690.330 6577015.447 -22076909.955 10 0 59381 63900.00000 0 11186884.464 9223789.314 -20965573.892 10 0 59381 64800.00000 0 11627835.550 11683448.574 -19446239.257 10 0 59381 65700.00000 0 12199553.662 13899192.887 -17548529.404 10 0 59381 66600.00000 0 12858192.929 15823127.741 -15309430.143 10 0 59381 67500.00000 0 13553005.481 17418027.843 -12772562.814 10 0 59381 68400.00000 0 14228602.366 18658659.665 -9987327.739 10 0 59381 69300.00000 0 14827425.143 19532608.944 -7007935.299 10 0 59381 70200.00000 0 15292322.950 20040580.008 -3892344.055 10 0 59381 71100.00000 0 15569125.464 20196156.021 -701127.211 10 0 59381 72000.00000 0 15609102.515 20025032.024 2503709.765 10 0 59381 72900.00000 0 15371206.075 19563754.854 5659936.789 10 0 59381 73800.00000 0 14823999.757 18858024.667 8706308.175 10 0 59381 74700.00000 0 13947194.396 17960631.002 11583749.158 10 0 59381 75600.00000 0 12732725.040 16929111.413 14236496.984 10 0 59381 76500.00000 0 11185324.072 15823231.857 16613174.745 10 0 59381 77400.00000 0 9322566.386 14702395.074 18667777.725 10 0 59381 78300.00000 0 7174384.506 13623085.640 20360554.085 10 0 59381 79200.00000 0 4782073.433 12636458.379 21658763.913 10 0 59381 80100.00000 0 2196826.057 11786170.427 22537303.102 10 0 59381 81000.00000 0 -522140.936 11106546.759 22979181.101 10 0 59381 81900.00000 0 -3309794.134 10621154.977 22975844.291 10 0 59381 82800.00000 0 -6097733.275 10341848.110 22527339.328 10 0 59381 83700.00000 0 -8816784.029 10268314.814 21642313.660 10 0 59381 84600.00000 0 -11399627.927 10388155.442 20337853.051 10 0 59381 85500.00000 0 -13783361.885 10677480.829 18639158.764 99